Location: Arbon
(43.0005°N, 0.7472°E)
Time: 22:30:30
(UTC+00:00)

Altair - Pass Details

Date: 05 December 2020
Orbit: 1501 x 1682 km, 47.2° (Epoch: 26 January)

Event Time Altitude Azimuth Distance (km) Brightness Sun altitude
Rises 02:24:29 0° 293° (WNW) 4,640 - -51.6°
Reaches altitude 10° 02:28:06 10° 281° (WNW) 3,653 - -51.0°
Maximum altitude 02:35:12 26° 230° (SW) 2,617 - -49.8°
Drops below altitude 10° 02:42:23 10° 178° (S) 3,683 - -48.5°
Sets 02:46:05 0° 166° (SSE) 4,685 - -47.9°
